Location: Noyers
(47.2770°N, 1.4032°E)
Time: 03:12:05
(UTC+00:00)

PSLV R/B - Pass Details

Date: 15 May 2026
Orbit: 586 x 678 km, 97.9° (Epoch: 8 June)

Event Time Altitude Azimuth Distance (km) Brightness Sun altitude
Rises 23:10:53 0° 16° (NNE) 2,878 8.0 -23.1°
Reaches altitude 10° 23:13:05 10° 20° (NNE) 1,982 7.0 -23.1°
Enters shadow 23:17:20 61° 100° (E) 714 3.7 -23.2°
